When you browse on this site, cookies collect data to enhance your experience and personalize the content and advertising you see.
Visit our Privacy Policy to learn more. By continuing to use the site, you agree to this use of cookies and data.
  • In Sweden
  • List of Countries
  • For 7 days
  • Water Temperature
  • Weather Map
  • Weather Widgets
  • user-avatar
    Login

    Hourly Weather Clinton

    Today, 22 August, Thursday

    Time Temperature Precipitation Wind Pressure Humidity
    00:00 +21°C° 0 mm 4 mps 744 mmHg 77%
    01:00 +20°C° 0 mm 4 mps 743 mmHg 75%
    02:00 +19°C° 0 mm 4 mps 743 mmHg 74%
    03:00 +18°C° 0 mm 4 mps 743 mmHg 72%
    04:00 +18°C° 0 mm 4 mps 744 mmHg 70%
    05:00 +18°C° 0 mm 4 mps 744 mmHg 67%
    06:00 +17°C° 0 mm 4 mps 744 mmHg 65%
    07:00 +18°C° 0 mm 4 mps 744 mmHg 62%
    08:00 +19°C° 0 mm 3 mps 745 mmHg 60%
    09:00 +20°C° 0 mm 3 mps 745 mmHg 57%
    10:00 +21°C° 0 mm 3 mps 745 mmHg 54%
    11:00 +22°C° 0 mm 3 mps 745 mmHg 50%
    12:00 +25°C° 0 mm 4 mps 746 mmHg 46%
    13:00 +23°C° 0 mm 4 mps 745 mmHg 47%
    14:00 +23°C° 0 mm 4 mps 745 mmHg 49%
    15:00 +23°C° 0 mm 4 mps 744 mmHg 50%
    16:00 +22°C° 0 mm 4 mps 745 mmHg 53%
    17:00 +21°C° 0 mm 3 mps 745 mmHg 56%
    18:00 +20°C° 0 mm 3 mps 745 mmHg 60%
    19:00 +19°C° 0 mm 2 mps 745 mmHg 62%
    20:00 +19°C° 0 mm 2 mps 746 mmHg 64%
    21:00 +19°C° 0 mm 1 mps 746 mmHg 65%
    22:00 +18°C° 0 mm 1 mps 746 mmHg 67%
    23:00 +17°C° 0 mm 2 mps 746 mmHg 69%

    Tomorrow, 23 August, Friday

    Time Temperature Precipitation Wind Pressure Humidity
    00:00 +16°C° 0 mm 2 mps 747 mmHg 71%
    01:00 +16°C° 0 mm 2 mps 747 mmHg 69%
    02:00 +16°C° 0 mm 2 mps 747 mmHg 68%
    03:00 +16°C° 0 mm 2 mps 747 mmHg 66%
    04:00 +16°C° 0 mm 2 mps 747 mmHg 67%
    05:00 +16°C° 0 mm 3 mps 748 mmHg 69%
    06:00 +16°C° 0 mm 3 mps 748 mmHg 70%
    07:00 +17°C° 0 mm 3 mps 748 mmHg 65%
    08:00 +19°C° 0 mm 3 mps 749 mmHg 59%
    09:00 +21°C° 0 mm 3 mps 749 mmHg 54%
    10:00 +22°C° 0 mm 3 mps 749 mmHg 51%
    11:00 +24°C° 0 mm 3 mps 749 mmHg 48%
    12:00 +24°C° 0 mm 3 mps 749 mmHg 45%
    13:00 +24°C° 0 mm 3 mps 749 mmHg 48%
    14:00 +23°C° 0 mm 4 mps 748 mmHg 51%
    15:00 +23°C° 0 mm 4 mps 748 mmHg 54%
    16:00 +21°C° 0 mm 4 mps 748 mmHg 59%
    17:00 +20°C° 0 mm 4 mps 749 mmHg 65%
    18:00 +19°C° 0 mm 4 mps 749 mmHg 70%
    19:00 +18°C° 0 mm 4 mps 749 mmHg 71%
    20:00 +17°C° 0 mm 4 mps 749 mmHg 71%
    21:00 +17°C° 0 mm 4 mps 750 mmHg 72%
    22:00 +16°C° 0 mm 3 mps 750 mmHg 73%
    23:00 +16°C° 0 mm 3 mps 750 mmHg 75%

    Day after tomorrow, 24 August, Saturday

    Time Temperature Precipitation Wind Pressure Humidity
    00:00 +14°C° 0 mm 3 mps 750 mmHg 76%
    01:00 +14°C° 0 mm 3 mps 750 mmHg 75%
    02:00 +14°C° 0 mm 3 mps 750 mmHg 73%
    03:00 +13°C° 0 mm 3 mps 750 mmHg 71%
    04:00 +13°C° 0 mm 3 mps 751 mmHg 72%
    05:00 +14°C° 0 mm 3 mps 751 mmHg 73%
    06:00 +14°C° 0 mm 3 mps 752 mmHg 74%
    07:00 +15°C° 0 mm 4 mps 752 mmHg 69%
    08:00 +18°C° 0 mm 4 mps 752 mmHg 64%
    09:00 +20°C° 0 mm 4 mps 752 mmHg 59%
    10:00 +21°C° 0 mm 4 mps 752 mmHg 55%
    11:00 +22°C° 0 mm 3 mps 752 mmHg 51%
    12:00 +24°C° 0 mm 3 mps 752 mmHg 47%
    13:00 +24°C° 0 mm 3 mps 751 mmHg 48%
    14:00 +24°C° 0 mm 3 mps 751 mmHg 48%
    15:00 +24°C° 0 mm 3 mps 751 mmHg 49%
    16:00 +22°C° 0 mm 3 mps 750 mmHg 55%
    17:00 +21°C° 0 mm 3 mps 750 mmHg 62%
    18:00 +19°C° 0 mm 3 mps 750 mmHg 68%
    19:00 +19°C° 0 mm 3 mps 750 mmHg 71%
    20:00 +18°C° 0 mm 3 mps 751 mmHg 74%
    21:00 +17°C° 0 mm 3 mps 751 mmHg 78%
    22:00 +17°C° 0 mm 3 mps 750 mmHg 78%
    23:00 +17°C° 0 mm 3 mps 750 mmHg 78%

    25 August, Sunday

    Time Temperature Precipitation Wind Pressure Humidity
    00:00 +16°C° 0 mm 2 mps 750 mmHg 78%
    01:00 +16°C° 0 mm 3 mps 750 mmHg 79%
    02:00 +16°C° 0 mm 3 mps 750 mmHg 80%
    03:00 +16°C° 0 mm 3 mps 749 mmHg 81%
    04:00 +16°C° 0 mm 3 mps 750 mmHg 82%
    05:00 +16°C° 0 mm 3 mps 750 mmHg 82%
    06:00 +17°C° 0 mm 3 mps 750 mmHg 82%
    07:00 +19°C° 0 mm 4 mps 750 mmHg 77%
    08:00 +21°C° 0 mm 4 mps 750 mmHg 72%
    09:00 +23°C° 0 mm 4 mps 750 mmHg 67%
    10:00 +25°C° 0 mm 5 mps 750 mmHg 62%
    11:00 +25°C° 0 mm 5 mps 749 mmHg 58%
    12:00 +26°C° 0 mm 5 mps 749 mmHg 54%
    13:00 +26°C° 0 mm 5 mps 749 mmHg 54%
    14:00 +26°C° 0 mm 5 mps 748 mmHg 54%
    15:00 +26°C° 0 mm 5 mps 748 mmHg 54%
    16:00 +25°C° 0 mm 5 mps 748 mmHg 59%
    17:00 +23°C° 0 mm 4 mps 747 mmHg 65%
    18:00 +22°C° 0 mm 4 mps 747 mmHg 71%
    19:00 +21°C° 0 mm 4 mps 747 mmHg 74%
    20:00 +21°C° 0 mm 4 mps 748 mmHg 77%
    21:00 +20°C° 0 mm 5 mps 748 mmHg 79%
    22:00 +20°C° 0 mm 5 mps 747 mmHg 78%
    23:00 +20°C° 0 mm 5 mps 747 mmHg 77%

    26 August, Monday

    Time Temperature Precipitation Wind Pressure Humidity
    00:00 +21°C° 0 mm 5 mps 747 mmHg 76%
    01:00 +21°C° 0 mm 5 mps 747 mmHg 76%
    02:00 +20°C° 0 mm 5 mps 747 mmHg 76%
    03:00 +20°C° 0 mm 5 mps 747 mmHg 76%
    04:00 +20°C° 0 mm 5 mps 747 mmHg 75%
    05:00 +21°C° 0 mm 5 mps 747 mmHg 74%
    06:00 +21°C° 0 mm 5 mps 747 mmHg 73%
    07:00 +22°C° 0 mm 5 mps 747 mmHg 71%
    08:00 +22°C° 0 mm 6 mps 747 mmHg 68%
    09:00 +23°C° 0 mm 6 mps 747 mmHg 66%
    10:00 +24°C° 0 mm 7 mps 746 mmHg 64%
    11:00 +26°C° 0 mm 7 mps 746 mmHg 62%
    12:00 +27°C° 0 mm 7 mps 746 mmHg 61%
    13:00 +26°C° 0 mm 7 mps 745 mmHg 63%
    14:00 +26°C° 0 mm 6 mps 745 mmHg 66%
    15:00 +24°C° 0 mm 6 mps 745 mmHg 68%
    16:00 +25°C° 0.1 mm 5 mps 744 mmHg 70%
    17:00 +23°C° 0.1 mm 5 mps 744 mmHg 72%
    18:00 +23°C° 0.1 mm 5 mps 744 mmHg 74%
    19:00 +22°C° 0.5 mm 6 mps 744 mmHg 78%
    20:00 +22°C° 0.5 mm 7 mps 743 mmHg 83%
    21:00 +22°C° 0.5 mm 8 mps 743 mmHg 87%
    22:00 +22°C° 0.8 mm 8 mps 743 mmHg 88%
    23:00 +21°C° 0.8 mm 8 mps 742 mmHg 89%

    27 August, Tuesday

    Time Temperature Precipitation Wind Pressure Humidity
    00:00 +21°C° 0.8 mm 8 mps 742 mmHg 90%
    01:00 +21°C° 1.3 mm 7 mps 741 mmHg 90%
    02:00 +22°C° 1.3 mm 7 mps 741 mmHg 90%
    03:00 +22°C° 1.3 mm 6 mps 741 mmHg 91%
    04:00 +22°C° 0.1 mm 6 mps 740 mmHg 90%
    05:00 +22°C° 0.1 mm 6 mps 740 mmHg 90%
    06:00 +23°C° 0.1 mm 6 mps 740 mmHg 89%
    07:00 +23°C° 0.2 mm 6 mps 739 mmHg 89%
    08:00 +23°C° 0.2 mm 7 mps 739 mmHg 89%
    09:00 +24°C° 0.2 mm 7 mps 739 mmHg 88%
    10:00 +24°C° 0.6 mm 8 mps 738 mmHg 86%
    11:00 +26°C° 0.6 mm 8 mps 738 mmHg 83%
    12:00 +26°C° 0.6 mm 9 mps 738 mmHg 81%
    13:00 +27°C° 0.7 mm 8 mps 738 mmHg 76%
    14:00 +28°C° 0.7 mm 7 mps 738 mmHg 70%
    15:00 +28°C° 0.7 mm 6 mps 738 mmHg 65%
    16:00 +27°C° 0 mm 6 mps 739 mmHg 67%
    17:00 +24°C° 0 mm 6 mps 739 mmHg 68%
    18:00 +23°C° 0 mm 6 mps 740 mmHg 69%
    19:00 +22°C° 0 mm 6 mps 740 mmHg 69%
    20:00 +21°C° 0 mm 5 mps 741 mmHg 68%
    21:00 +20°C° 0 mm 5 mps 742 mmHg 68%
    22:00 +20°C° 0 mm 4 mps 742 mmHg 67%
    23:00 +19°C° 0 mm 3 mps 742 mmHg 67%
    Show more